| time (UTC) | temp F | wind direction | speed MPH | gust MPH | rain 1hr in | rain 24hr in | rain mn in | humidity % | barometer mb |
| 20260507191554 | 63 | 313 | 2.0 | 4.0 | 0.00 | 0.00 | 0.00 | 30 | 1002.9 |
| 20260507190041 | 63 | 201 | 0.0 | 6.0 | 0.00 | 0.00 | 0.00 | 29 | 1003.1 |
| 20260507184548 | 65 | 302 | 1.0 | 4.0 | 0.00 | 0.00 | 0.00 | 30 | 1003.2 |
| 20260507183044 | 65 | 84 | 1.0 | 8.0 | 0.00 | 0.00 | 0.00 | 33 | 1003.3 |
| 20260507181540 | 66 | 145 | 1.0 | 4.0 | 0.00 | 0.00 | 0.00 | 33 | 1003.4 |
| 20260507180038 | 65 | 32 | 1.0 | 4.0 | 0.00 | 0.00 | 0.00 | 33 | 1003.4 |
| 20260507174536 | 65 | 153 | 2.0 | 4.0 | 0.00 | 0.00 | 0.00 | 32 | 1003.5 |
| 20260507173034 | 65 | 205 | 2.0 | 4.0 | 0.00 | 0.00 | 0.00 | 32 | 1003.2 |
| 20260507171531 | 65 | 31 | 1.0 | 4.0 | 0.00 | 0.00 | 0.00 | 34 | 1003.4 |
| 20260507170028 | 63 | 329 | 2.0 | 8.0 | 0.00 | 0.00 | 0.00 | 36 | 1003.8 |
| 20260507164527 | 62 | 346 | 1.0 | 6.0 | 0.00 | 0.00 | 0.00 | 41 | 1004.0 |
| 20260507163024 | 62 | 195 | 2.0 | 6.0 | 0.00 | 0.00 | 0.00 | 42 | 1004.0 |
| 20260507161623 | 62 | 335 | 1.0 | 4.0 | 0.00 | 0.00 | 0.00 | 45 | 1004.2 |
| 20260507160029 | 63 | 41 | 1.0 | 6.0 | 0.00 | 0.00 | 0.00 | 50 | 1004.3 |
| 20260507154519 | 61 | 223 | 1.0 | 5.0 | 0.00 | 0.00 | 0.00 | 47 | 1004.4 |
| 20260507153015 | 60 | 252 | 0.0 | 3.0 | 0.00 | 0.00 | 0.00 | 52 | 1004.3 |
| 20260507151514 | 61 | 201 | 1.0 | 4.0 | 0.00 | 0.00 | 0.00 | 53 | 1004.5 |
| 20260507150013 | 59 | 340 | 0.0 | 5.0 | 0.00 | 0.00 | 0.00 | 59 | 1004.7 |
| 20260507144511 | 59 | 190 | 1.0 | 5.0 | 0.00 | 0.00 | 0.00 | 60 | 1004.8 |
| 20260507143017 | 59 | 190 | 0.0 | 3.0 | 0.00 | 0.00 | 0.00 | 61 | 1004.9 |
| 20260507141507 | 58 | 68 | 0.0 | 3.0 | 0.00 | 0.00 | 0.00 | 61 | 1004.9 |
| 20260507140006 | 58 | 159 | 2.0 | 5.0 | 0.00 | 0.00 | 0.00 | 63 | 1004.9 |
| 20260507134505 | 57 | 277 | 1.0 | 3.0 | 0.00 | 0.00 | 0.00 | 64 | 1004.9 |
| 20260507133003 | 56 | 115 | 0.0 | 3.0 | 0.00 | 0.00 | 0.00 | 67 | 1004.9 |
| 20260507131503 | 55 | 5 | 0.0 | 4.0 | 0.00 | 0.00 | 0.00 | 72 | 1005.2 |
| 20260507130059 | 54 | 340 | 1.0 | 3.0 | 0.00 | 0.00 | 0.00 | 77 | 1005.3 |
| 20260507124558 | 52 | 348 | 1.0 | 5.0 | 0.00 | 0.00 | 0.00 | 83 | 1005.4 |
| 20260507123111 | 51 | 12 | 0.0 | 2.0 | 0.00 | 0.00 | 0.00 | 89 | 1005.4 |
| 20260507121555 | 49 | 250 | 0.0 | 1.0 | 0.00 | 0.00 | 0.00 | 91 | 1005.5 |
| 20260507120054 | 49 | 121 | 0.0 | 2.0 | 0.00 | 0.00 | 0.00 | 92 | 1005.5 |
| 20260507114557 | 48 | 187 | 0.0 | 1.0 | 0.00 | 0.00 | 0.00 | 92 | 1005.4 |
| 20260507113052 | 48 | 187 | 0.0 | 0.0 | 0.00 | 0.00 | 0.00 | 92 | 1005.4 |
| 20260507111551 | 47 | 187 | 0.0 | 2.0 | 0.00 | 0.00 | 0.00 | 92 | 1005.3 |
| 20260507110052 | 47 | 188 | 0.0 | 0.0 | 0.00 | 0.00 | 0.00 | 92 | 1005.1 |
| 20260507104557 | 47 | 187 | 0.0 | 1.0 | 0.00 | 0.00 | 0.00 | 92 | 1005.3 |
| 20260507103047 | 47 | 187 | 0.0 | 0.0 | 0.00 | 0.00 | 0.00 | 92 | 1004.6 |
| 20260507101547 | 48 | 187 | 0.0 | 2.0 | 0.00 | 0.00 | 0.00 | 92 | 1004.6 |
| 20260507100054 | 48 | 140 | 0.0 | 1.0 | 0.00 | 0.00 | 0.00 | 91 | 1004.6 |
| 20260507094547 | 48 | 140 | 0.0 | 1.0 | 0.00 | 0.00 | 0.00 | 91 | 1004.2 |
| 20260507093043 | 48 | 140 | 0.0 | 2.0 | 0.00 | 0.00 | 0.00 | 91 | 1004.5 |
| 20260507091542 | 48 | 236 | 0.0 | 1.0 | 0.00 | 0.00 | 0.00 | 91 | 1004.5 |
| 20260507090049 | 49 | 236 | 0.0 | 1.0 | 0.00 | 0.00 | 0.00 | 91 | 1005.1 |
| 20260507084545 | 49 | 250 | 0.0 | 4.0 | 0.00 | 0.00 | 0.00 | 92 | 1004.8 |
| 20260507083035 | 50 | 237 | 0.0 | 0.0 | 0.00 | 0.00 | 0.00 | 92 | 1004.6 |
| 20260507081533 | 50 | 237 | 0.0 | 0.0 | 0.00 | 0.00 | 0.00 | 92 | 1004.3 |
| 20260507080030 | 50 | 237 | 0.0 | 2.0 | 0.00 | 0.00 | 0.00 | 92 | 1004.3 |
| 20260507074528 | 51 | 238 | 0.0 | 2.0 | 0.00 | 0.00 | 0.00 | 92 | 1004.6 |
| 20260507073027 | 51 | 275 | 0.0 | 2.0 | 0.00 | 0.00 | 0.00 | 92 | 1004.6 |
| 20260507071528 | 51 | 326 | 0.0 | 2.0 | 0.00 | 0.00 | 0.00 | 92 | 1003.8 |
| 20260507070023 | 52 | 337 | 0.0 | 0.0 | 0.00 | 0.00 | 0.00 | 92 | 1003.8 |
| 20260507064533 | 52 | 337 | 0.0 | 0.0 | 0.00 | 0.00 | 0.00 | 92 | 1003.5 |
| 20260507063020 | 52 | 337 | 0.0 | 0.0 | 0.00 | 0.00 | 0.00 | 92 | 1003.7 |
| 20260507061517 | 53 | 337 | 0.0 | 0.0 | 0.00 | 0.00 | 0.00 | 92 | 1003.7 |
| 20260507060014 | 53 | 337 | 0.0 | 2.0 | 0.00 | 0.00 | 0.00 | 92 | 1003.7 |
| 20260507054511 | 54 | 304 | 0.0 | 1.0 | 0.00 | 0.00 | 0.00 | 92 | 1003.7 |
| 20260507053009 | 55 | 279 | 0.0 | 1.0 | 0.00 | 0.00 | 0.00 | 93 | 1004.0 |
| 20260507051508 | 55 | 224 | 0.0 | 1.0 | 0.00 | 0.00 | 0.00 | 92 | 1004.1 |
| 20260507050107 | 55 | 224 | 0.0 | 1.0 | 0.00 | 0.00 | 0.00 | 93 | 1004.0 |
| 20260507044503 | 56 | 250 | 0.0 | 1.0 | 0.00 | 0.00 | 0.00 | 93 | 1004.1 |
| 20260507043100 | 56 | 226 | 0.0 | 2.0 | 0.00 | 0.00 | 0.00 | 93 | 1003.8 |
| 20260507041559 | 57 | 5 | 0.0 | 2.0 | 0.00 | 0.00 | 0.00 | 93 | 1003.8 |
| 20260507040054 | 58 | 242 | 0.0 | 3.0 | 0.00 | 0.00 | 0.00 | 93 | 1003.9 |
| 20260507034554 | 58 | 152 | 0.0 | 2.0 | 0.00 | 0.00 | 0.00 | 93 | 1003.6 |
| 20260507033052 | 58 | 299 | 0.0 | 2.0 | 0.00 | 0.00 | 0.00 | 93 | 1003.2 |
| 20260507031552 | 58 | 174 | 0.0 | 2.0 | 0.00 | 0.00 | 0.00 | 93 | 1003.1 |
| 20260507030052 | 58 | 174 | 0.0 | 3.0 | 0.00 | 0.00 | 0.00 | 93 | 1002.8 |
| 20260507024551 | 58 | 62 | 0.0 | 2.0 | 0.00 | 0.00 | 0.00 | 93 | 1002.8 |
| 20260507023049 | 58 | 177 | 1.0 | 8.0 | 0.00 | 0.00 | 0.00 | 93 | 1002.7 |
| 20260507021549 | 58 | 231 | 1.0 | 4.0 | 0.00 | 0.00 | 0.00 | 93 | 1002.7 |
| 20260507014554 | 58 | 190 | 1.0 | 4.0 | 0.00 | 0.00 | 0.00 | 93 | 1002.7 |
| 20260507013047 | 58 | 119 | 1.0 | 5.0 | 0.00 | 0.00 | 0.00 | 93 | 1002.7 |
| 20260507011547 | 58 | 133 | 2.0 | 5.0 | 0.00 | 0.00 | 0.00 | 93 | 1002.7 |
| 20260507010059 | 58 | 311 | 0.0 | 8.0 | 0.00 | 0.00 | 0.00 | 92 | 1002.8 |
| 20260507004546 | 58 | 234 | 1.0 | 6.0 | 0.00 | 0.00 | 0.00 | 92 | 1002.8 |
| 20260507003044 | 59 | 241 | 1.0 | 7.0 | 0.00 | 0.00 | 0.00 | 92 | 1002.8 |
| 20260507001547 | 59 | 186 | 2.0 | 6.0 | 0.00 | 0.00 | 0.00 | 92 | 1002.6 |
| 20260507000043 | 59 | 207 | 2.0 | 7.0 | 0.00 | 0.00 | 0.00 | 92 | 1002.6 |
| 20260506234542 | 59 | 182 | 0.0 | 5.0 | 0.00 | 0.00 | 0.00 | 92 | 1002.5 |
| 20260506233041 | 59 | 217 | 3.0 | 7.0 | 0.00 | 0.00 | 0.00 | 92 | 1002.4 |
| 20260506231555 | 59 | 194 | 0.0 | 5.0 | 0.00 | 0.00 | 0.00 | 92 | 1002.3 |
| 20260506230053 | 59 | 185 | 3.0 | 7.0 | 0.00 | 0.00 | 0.00 | 91 | 1002.5 |
| 20260506224540 | 59 | 194 | 1.0 | 5.0 | 0.00 | 0.00 | 0.00 | 91 | 1002.6 |
| 20260506223038 | 59 | 200 | 1.0 | 9.0 | 0.00 | 0.00 | 0.00 | 91 | 1002.6 |
| 20260506221540 | 59 | 119 | 2.0 | 10.0 | 0.00 | 0.00 | 0.00 | 91 | 1002.7 |
| 20260506220038 | 60 | 165 | 3.0 | 10.0 | 0.00 | 0.00 | 0.00 | 91 | 1002.8 |
| 20260506214537 | 59 | 162 | 1.0 | 8.0 | 0.00 | 0.00 | 0.00 | 91 | 1002.9 |
| 20260506213033 | 60 | 201 | 3.0 | 8.0 | 0.00 | 0.00 | 0.00 | 90 | 1003.1 |
| 20260506211533 | 60 | 128 | 1.0 | 7.0 | 0.00 | 0.00 | 0.00 | 90 | 1003.4 |
| 20260506210031 | 60 | 41 | 2.0 | 12.0 | 0.00 | 0.00 | 0.00 | 89 | 1003.4 |
| 20260506204533 | 60 | 229 | 2.0 | 9.0 | 0.00 | 0.00 | 0.00 | 89 | 1003.5 |
| 20260506203025 | 61 | 70 | 1.0 | 5.0 | 0.00 | 0.00 | 0.00 | 88 | 1003.6 |
| 20260506201535 | 61 | 193 | 2.0 | 7.0 | 0.00 | 0.00 | 0.00 | 87 | 1003.5 |
| 20260506200023 | 62 | 249 | 2.0 | 6.0 | 0.00 | 0.00 | 0.00 | 86 | 1003.6 |
| 20260506194523 | 63 | 200 | 2.0 | 6.0 | 0.00 | 0.00 | 0.00 | 85 | 1003.6 |
| 20260506193025 | 64 | 183 | 2.0 | 5.0 | 0.00 | 0.00 | 0.00 | 83 | 1003.6 |